Home > Weather > Brandon > Past weeks

Flag for Canada Weather for the Past 2 Weeks in Brandon, Manitoba, Canada

Now
10 °F

Light snow. Mostly cloudy.


Feels Like: -2 °F
Forecast: 9 / 29 °F
Wind: 8 mph from South

Location: Brandon

Current Time: Feb 14, 2016 at 12:01:39 AM

Latest Report: Feb 13, 2016 at 11:00 PM


Visibility: 6 mi

Pressure: 30.01 "Hg

Humidity: 79%

Dew point: 5 °F

Location of BrandonLocation

Historic Weather in Brandon — Graph

°F

Brandon Temperature Yesterday

Maximum temperature yesterday: 10 °F (at 11:00 PM)
Minimum temperature yesterday: -24 °F (at 12:00 AM)
Average temperature yesterday: -5 °F

High & Low Weather Summary for the Past Weeks

 TemperatureHumidityPressure
High39 °F (Feb 6, 4:00 PM)100% (Jan 31, 11:00 PM)30.80 "Hg (Jan 31, 11:00 PM)
Low-24 °F (Feb 12, 7:00 AM)51% (Feb 13, 1:00 PM)29.30 "Hg (Jan 30, 12:00 AM)
Average13 °F81%30.12 "Hg
* Reported Jan 29 11:00 PM — Feb 13 11:00 PM, Brandon, Weather by CustomWeather, © 2016

Note: Actual official high and low records may vary slightly from our data, if they occured in-between our weather recording intervals... More about our weather records

Advertising

Brandon Weather History for the Previous 24 Hours

 ConditionsComfort  
Time TempWeatherWind HumidityBarometerVisibility
11:00 PM
Sat, Feb 13
10 °FLight snow. Mostly cloudy.8 mph79%30.01 "Hg6 mi
10:00 PM9 °FLight snow. Mostly cloudy.13 mph85%30.03 "Hg4 mi
9:00 PM7 °FLight snow. Overcast.12 mph85%30.08 "Hg2 mi
8:00 PM7 °FLight snow. Ice fog.16 mph85%30.11 "Hg1 mi
7:00 PM7 °FLight snow. Overcast.16 mph85%30.14 "Hg3 mi
6:00 PM7 °FLight snow. Overcast.18 mph78%30.14 "Hg15 mi
5:00 PM7 °FLight snow. Overcast.15 mph72%30.17 "Hg15 mi
4:00 PM7 °FOvercast.14 mph66%30.20 "Hg15 mi
3:00 PM7 °FPartly sunny.18 mph61%30.24 "Hg15 mi
2:00 PM7 °FPartly sunny.14 mph61%30.26 "Hg15 mi
1:00 PM7 °FPartly sunny.16 mph51%30.31 "Hg15 mi
12:00 PM5 °FPartly sunny.16 mph55%30.37 "Hg15 mi
11:00 AM0 °FPartly sunny.9 mph60%30.41 "Hg15 mi
10:00 AM-8 °FPartly sunny.8 mph77%30.45 "Hg15 mi
9:00 AM-15 °FPartly sunny.8 mph76%30.49 "Hg15 mi
8:00 AM-18 °FBroken clouds.8 mph75%30.53 "Hg15 mi
7:00 AM-17 °FPassing clouds.12 mph76%30.53 "Hg15 mi
6:00 AM-17 °FPassing clouds.9 mph76%30.56 "Hg15 mi
5:00 AM-18 °FPassing clouds.5 mph75%30.58 "Hg15 mi
4:00 AM-18 °FPassing clouds.5 mph83%30.61 "Hg15 mi
3:00 AM-20 °FPassing clouds.3 mph75%30.65 "Hg15 mi
2:00 AM-20 °FPassing clouds.6 mph68%30.66 "Hg15 mi
1:00 AM-22 °FPassing clouds.7 mph75%30.70 "Hg15 mi
12:00 AM-24 °FPassing clouds.2 mph75%30.73 "Hg15 mi
Weather by CustomWeather, © 2016

See weather overviewHow to use our weather pages